{"data":{"norad_id":65281,"intl_designator":"2025-184J","name":"STARLINK-35010","alt_names":[],"object_type":"PAYLOAD","status":"ACTIVE","operator":null,"country":"US","launch_date":"2025-08-22","launch_site_code":"AFWTR","launch_vehicle":null,"mission":null,"orbit_class":"UNKNOWN","rcs_meters":null,"size_class":null,"mass_kg":null,"dimensions":null,"purposes":["comms"],"wikipedia_slug":null,"has_3d_model":false,"image_url":null,"decayed_at":null,"tle_current":{"epoch":"2026-09-20T20:50:45.422592Z","epoch_age_seconds":85695,"freshness":"FRESH","line1":"1 65281U 25184J   26263.86858128  .00017715  00000+0  54966-3 0  9990","line2":"2 65281  97.2888 311.8730 0000768 117.3707 242.7614 15.33451043 60782","mean_motion":15.33451043,"eccentricity":7.68e-5,"inclination_deg":97.2888,"raan_deg":311.873,"arg_perigee_deg":117.3707,"mean_anomaly_deg":242.7614,"bstar":0.00054966,"rev_number":6078,"period_min":93.905834592725,"perigee_km":464.99960156423,"apogee_km":466.05078807735,"semimajor_km":6843.6621948208,"source":"CELESTRAK","updated_at":"2026-09-21T09:00:35.565259Z"}}}